Weather History for Albany, NY

Change the Weather History Date:

Saturday, August 3, 2013

  Actual Average Record
Temperature  
Mean Temperature 71 °F 72 °F  
Max Temperature 81 °F 82 °F 97 °F (1975)
Min Temperature 61 °F 61 °F 44 °F (1976)
Degree Days  
Heating Degree Days 0 0  
Month to date heating degree days 0 0  
Since 1 June heating degree days 57 57  
Since 1 July heating degree days 2 5  
Cooling Degree Days 6 7  
Month to date cooling degree days 17 21  
Year to date cooling degree days 560 387  
Since 1 June cooling degree days 511 357  
Growing Degree Days 21 (Base 50)    
Moisture  
Dew Point 55 °F    
Average Humidity 63    
Maximum Humidity 90    
Minimum Humidity 36    
Precipitation  
Precipitation 0.00 in 0.13 in 1.52 in (1875)
Month to date precipitation 0.02 0.39  
Year to date precipitation 28.83 23.08  
Sea Level Pressure  
Sea Level Pressure 29.85 in    
Wind  
Wind Speed 9 mph (West)    
Max Wind Speed 21 mph    
Max Gust Speed 30 mph    
Visibility 10 miles    
Events      
T = Trace of Precipitation, MM = Missing Value Source: NWS Daily Summary

Daily Weather History Graph

Daily Weather History Graph

Search for Another Location

Airport:

Trip Planner

Search our weather history database for the weather conditions in past years. The results will help you decide how hot, cold, wet, or windy it might be!

Date:

Astronomy

Aug. 03, 2013 Rise Set
Actual Time 5:49 AM EDT 8:12 PM EDT
Civil Twilight 5:17 AM EDT 8:44 PM EDT
Nautical Twilight 4:37 AM EDT 9:23 PM EDT
Astronomical Twilight 3:53 AM EDT 10:07 PM EDT
Moon 2:55 AM EDT (8/3) 5:54 PM EDT (8/3)
Length of Visible Light 15h 27m
Length of Day
14h 23m
Waning Crescent, 9% of the Moon is Illuminated
Aug 3
Waning Crescent
Aug 6
New
Aug 14
First Quarter
Aug 20
Full
Aug 28
Last Quarter

Hourly Weather History & Observations

Time (EDT) Temp. Heat Index Dew Point Humidity Pressure Visibility Wind Dir Wind Speed Gust Speed Precip Events Conditions
12:51 AM 64.0 °F - 55.9 °F 75% 29.87 in 10.0 mi SSE 3.5 mph - N/A   Partly Cloudy
1:51 AM 63.0 °F - 57.0 °F 81% 29.86 in 10.0 mi Calm Calm - N/A   Mostly Cloudy
2:51 AM 64.9 °F - 59.0 °F 81% 29.83 in 10.0 mi South 4.6 mph - N/A   Mostly Cloudy
3:51 AM 66.0 °F - 59.0 °F 78% 29.81 in 10.0 mi South 6.9 mph - N/A   Mostly Cloudy
4:51 AM 64.9 °F - 59.0 °F 81% 29.82 in 10.0 mi South 5.8 mph - N/A   Mostly Cloudy
5:51 AM 63.0 °F - 59.0 °F 87% 29.83 in 10.0 mi South 3.5 mph - N/A   Mostly Cloudy
6:51 AM 64.9 °F - 59.0 °F 81% 29.84 in 10.0 mi Variable 5.8 mph - N/A   Overcast
7:51 AM 66.9 °F - 57.9 °F 73% 29.87 in 10.0 mi West 8.1 mph - N/A   Overcast
8:51 AM 69.1 °F - 59.0 °F 70% 29.87 in 10.0 mi West 9.2 mph - N/A   Mostly Cloudy
9:51 AM 72.0 °F - 59.0 °F 64% 29.86 in 10.0 mi West 10.4 mph - N/A   Mostly Cloudy
10:51 AM 73.9 °F - 59.0 °F 59% 29.86 in 10.0 mi West 8.1 mph - N/A   Scattered Clouds
11:51 AM 75.9 °F - 57.9 °F 54% 29.85 in 10.0 mi Variable 6.9 mph - N/A   Scattered Clouds
12:51 PM 78.1 °F - 57.9 °F 50% 29.84 in 10.0 mi West 11.5 mph - N/A   Scattered Clouds
1:51 PM 79.0 °F - 55.9 °F 45% 29.83 in 10.0 mi West 15.0 mph 23.0 mph N/A   Scattered Clouds
2:51 PM 80.1 °F 80.0 °F 54.0 °F 40% 29.82 in 10.0 mi West 15.0 mph 23.0 mph N/A   Scattered Clouds
3:51 PM 80.1 °F - 51.1 °F 36% 29.82 in 10.0 mi WNW 13.8 mph 25.3 mph N/A   Scattered Clouds
4:51 PM 79.0 °F - 51.1 °F 38% 29.82 in 10.0 mi NW 19.6 mph 26.5 mph N/A   Scattered Clouds
5:51 PM 77.0 °F - 51.1 °F 40% 29.83 in 10.0 mi WNW 12.7 mph - N/A   Scattered Clouds
6:51 PM 75.0 °F - 48.0 °F 38% 29.84 in 10.0 mi WNW 15.0 mph 21.9 mph N/A   Scattered Clouds
7:51 PM 72.0 °F - 48.9 °F 44% 29.85 in 10.0 mi WNW 10.4 mph - N/A   Scattered Clouds
8:51 PM 71.1 °F - 48.9 °F 45% 29.86 in 10.0 mi WNW 15.0 mph 20.7 mph N/A   Partly Cloudy
9:51 PM 70.0 °F - 48.0 °F 46% 29.88 in 10.0 mi WNW 10.4 mph - N/A   Partly Cloudy
10:51 PM 66.0 °F - 50.0 °F 56% 29.88 in 10.0 mi WNW 9.2 mph - N/A   Partly Cloudy
11:51 PM 64.0 °F - 51.1 °F 63% 29.87 in 10.0 mi Calm Calm - N/A   Partly Cloudy